Weather History for Long Beach, CA

Change the Weather History Date:

Sunday, September 15, 2013

  Actual Average Record
Temperature  
Mean Temperature 76 °F 73 °F  
Max Temperature 89 °F 82 °F 103 °F (2012)
Min Temperature 63 °F 63 °F 55 °F (1966)
Degree Days  
Heating Degree Days 0 0  
Month to date heating degree days 0 0  
Since 1 July heating degree days 0 0  
Cooling Degree Days 11 8  
Month to date cooling degree days 189 130  
Year to date cooling degree days 999 898  
Growing Degree Days 26 (Base 50)    
Moisture  
Dew Point 60 °F    
Average Humidity 67    
Maximum Humidity 93    
Minimum Humidity 40    
Precipitation  
Precipitation 0.00 in 0.01 in 0.03 in (1997)
Month to date precipitation 0.00 0.04  
Year to date precipitation 2.94 8.54  
Since 1 July precipitation 0.07 0.10  
Sea Level Pressure  
Sea Level Pressure 29.73 in    
Wind  
Wind Speed 4 mph (SW)    
Max Wind Speed 16 mph    
Max Gust Speed 20 mph    
Visibility 6 miles    
Events Fog    
T = Trace of Precipitation, MM = Missing Value Source: NWS Daily Summary

Daily Weather History Graph

Daily Weather History Graph

Search for Another Location

Airport:

Trip Planner

Search our weather history database for the weather conditions in past years. The results will help you decide how hot, cold, wet, or windy it might be!

Date:

Astronomy

Sep. 15, 2013 Rise Set
Actual Time 6:36 AM PDT 6:58 PM PDT
Civil Twilight 6:11 AM PDT 7:23 PM PDT
Nautical Twilight 5:41 AM PDT 7:52 PM PDT
Astronomical Twilight 5:12 AM PDT 8:22 PM PDT
Moon 4:21 PM PDT (9/15) 2:28 AM PDT (9/15)
Length of Visible Light 13h 12m
Length of Day
12h 22m
Waxing Gibbous, 83% of the Moon is Illuminated
Sep 15
Waxing Gibbous
Sep 19
Full
Sep 26
Last Quarter
Oct 4
New
Oct 11
First Quarter

Hourly Weather History & Observations

Time (PDT) Temp. Heat Index Dew Point Humidity Pressure Visibility Wind Dir Wind Speed Gust Speed Precip Events Conditions
12:53 AM 66.9 °F - 60.1 °F 79% 29.70 in 10.0 mi Calm Calm - N/A   Clear
1:53 AM 66.0 °F - 60.1 °F 81% 29.70 in 9.0 mi ESE 3.5 mph - N/A   Clear
2:53 AM 64.9 °F - 60.1 °F 84% 29.70 in 9.0 mi Calm Calm - N/A   Clear
3:53 AM 64.9 °F - 61.0 °F 87% 29.71 in 6.0 mi SSE 3.5 mph - N/A   Clear
4:13 AM 64.4 °F - 60.8 °F 88% 29.71 in 4.0 mi Calm Calm - N/A   Scattered Clouds
4:18 AM 62.6 °F - 60.8 °F 94% 29.71 in 3.0 mi South 3.5 mph - N/A   Mostly Cloudy
4:21 AM 62.6 °F - 60.8 °F 94% 29.71 in 1.5 mi South 3.5 mph - N/A   Mostly Cloudy
4:29 AM 62.6 °F - 60.8 °F 94% 29.71 in 1.2 mi Calm Calm - N/A   Mostly Cloudy
4:32 AM 62.6 °F - 60.8 °F 94% 29.71 in 2.0 mi Calm Calm - N/A   Mostly Cloudy
4:42 AM 62.6 °F - 60.8 °F 94% 29.71 in 1.2 mi South 3.5 mph - N/A   Mostly Cloudy
4:53 AM 63.0 °F - 61.0 °F 93% 29.71 in 0.8 mi Calm Calm - N/A   Mist
5:11 AM 62.6 °F - 60.8 °F 94% 29.72 in 0.2 mi South 3.5 mph - N/A Fog Fog
5:29 AM 62.6 °F - 60.8 °F 94% 29.72 in 0.2 mi SSE 3.5 mph - N/A Fog Fog
5:53 AM 64.0 °F - 62.1 °F 93% 29.73 in 0.2 mi Calm Calm - N/A Fog Fog
6:45 AM 64.4 °F - 62.6 °F 94% 29.74 in 0.5 mi Calm Calm - N/A Fog Fog
6:53 AM 64.9 °F - 62.1 °F 90% 29.74 in 0.2 mi Calm Calm - N/A Fog Fog
7:53 AM 64.9 °F - 63.0 °F 93% 29.75 in 1.5 mi Calm Calm - N/A   Overcast
8:53 AM 66.9 °F - 62.1 °F 84% 29.76 in 2.5 mi Calm Calm - N/A   Haze
9:11 AM 68.0 °F - 62.6 °F 83% 29.76 in 2.5 mi Calm Calm - N/A   Haze
9:43 AM 69.8 °F - 62.6 °F 78% 29.77 in 2.5 mi Calm Calm - N/A   Haze
9:53 AM 70.0 °F - 62.1 °F 76% 29.77 in 3.0 mi SSW 3.5 mph - N/A   Haze
10:53 AM 75.0 °F - 62.1 °F 64% 29.76 in 8.0 mi Calm Calm - N/A   Clear
11:53 AM 82.0 °F 82.7 °F 61.0 °F 49% 29.75 in 9.0 mi West 3.5 mph - N/A   Clear
12:53 PM 82.0 °F 83.0 °F 62.1 °F 51% 29.73 in 10.0 mi South 9.2 mph - N/A   Clear
1:53 PM 88.0 °F 87.9 °F 61.0 °F 40% 29.72 in 10.0 mi WSW 6.9 mph - N/A   Clear
2:53 PM 82.9 °F 82.8 °F 59.0 °F 44% 29.71 in 10.0 mi WNW 10.4 mph - N/A   Clear
3:53 PM 80.1 °F 80.7 °F 59.0 °F 48% 29.70 in 10.0 mi NW 10.4 mph - N/A   Clear
4:53 PM 80.1 °F 80.4 °F 57.0 °F 45% 29.70 in 10.0 mi NW 10.4 mph - N/A   Clear
5:53 PM 77.0 °F - 57.0 °F 50% 29.71 in 10.0 mi NW 11.5 mph - N/A   Clear
6:53 PM 73.9 °F - 55.9 °F 53% 29.71 in 10.0 mi NW 11.5 mph - N/A   Clear
7:53 PM 72.0 °F - 57.0 °F 59% 29.73 in 10.0 mi NW 6.9 mph - N/A   Clear
8:53 PM 72.0 °F - 57.0 °F 59% 29.75 in 10.0 mi Calm Calm - N/A   Clear
9:53 PM 71.1 °F - 59.0 °F 66% 29.75 in 10.0 mi South 4.6 mph - N/A   Clear
10:53 PM 70.0 °F - 59.0 °F 68% 29.77 in 10.0 mi Calm Calm - N/A   Clear
11:53 PM 68.0 °F - 59.0 °F 73% 29.77 in 10.0 mi Calm Calm - N/A   Clear